Location: Unspecified
(0.0000°N, 0.0000°E)
Time: 03:32:33
(UTC+00:00)

Vanguard 1 - Pass Details

Date: 18 December 2023
Orbit: 653 x 3826 km, 34.3° (Epoch: 22 February)

Event Time Altitude Azimuth Distance (km) Brightness Sun altitude
Rises 16:38:37 0° 330° (NNW) 5,009 13.8 17.8°
Reaches altitude 10° 16:48:07 10° 11° (NNE) 5,089 13.4 15.7°
Maximum altitude 16:49:28 10° 17° (NNE) 5,213 13.4 15.4°
Drops below altitude 10° 16:50:52 10° 22° (NNE) 5,364 13.4 15.0°
Sets 17:04:59 0° 60° (ENE) 7,476 13.9 11.8°
